Location: Unspecified
(34.0889°N, 0.0000°E)
Time: 06:08:46
(UTC+00:00)

Transit 4A - All Passes

Search period start: 04 April 2026 00:00
Search period end: 14 April 2026 00:00
Orbit: 863 x 978 km, 66.8° (Epoch: 29 March)

Date Brightness Start Highest point End Pass type
(mag) Time Alt. Az. Time Alt. Az. Time Alt. Az.
4 Apr - 01:50:50 10° N 01:56:39 35° ENE 02:02:25 10° ESE visible
4 Apr - 03:37:11 10° NW 03:42:53 35° WSW 03:48:33 10° S visible
4 Apr - 15:12:49 10° ESE 15:13:30 10° E 15:14:11 10° E daylight
4 Apr - 16:52:55 10° SSW 16:58:50 88° WNW 17:05:00 10° NNE daylight
4 Apr - 18:43:01 10° WNW 18:46:03 14° NW 18:49:08 10° NNW visible
5 Apr - 01:59:18 10° NNW 02:05:31 52° ENE 02:11:43 10° SE visible
5 Apr - 03:46:36 10° NW 03:51:25 23° WSW 03:56:13 10° SSW visible
5 Apr - 15:18:09 10° SE 15:21:55 18° ESE 15:25:45 10° ENE daylight
5 Apr - 17:01:46 10° SW 17:07:36 59° WNW 17:13:39 10° NNE daylight
6 Apr - 00:24:08 10° NNE 00:26:58 13° NE 00:29:49 10° ENE visible
6 Apr - 02:07:55 10° NNW 02:14:20 77° ENE 02:20:42 10° SSE visible
6 Apr - 03:56:41 10° WNW 03:59:54 14° WSW 04:03:06 10° SW night (unlit)
6 Apr - 15:25:29 10° SSE 15:30:24 28° ESE 15:35:27 10° NE daylight
6 Apr - 17:10:56 10° SW 17:16:28 39° WNW 17:22:10 10° N daylight
7 Apr - 00:31:45 10° N 00:36:08 19° NE 00:40:30 10° E visible
7 Apr - 02:16:41 10° NNW 02:23:03 73° WSW 02:29:24 10° SSE visible
7 Apr - 15:33:25 10° S 15:38:57 43° ESE 15:44:41 10° NE daylight
7 Apr - 17:20:26 10° WSW 17:25:24 27° NW 17:30:31 10° N daylight
8 Apr - 00:39:52 10° N 00:45:10 27° NE 00:50:29 10° ESE visible
8 Apr - 02:25:37 10° NW 02:31:43 48° WSW 02:37:46 10° S visible
8 Apr - 15:41:43 10° SSW 15:47:34 68° ESE 15:53:39 10° NNE daylight
8 Apr - 17:30:21 10° W 17:34:27 19° NW 17:38:38 10° N daylight
9 Apr - 00:48:12 10° N 00:54:08 39° ENE 01:00:02 10° SE visible
9 Apr - 02:34:46 10° NW 02:40:18 32° WSW 02:45:48 10° SSW visible
9 Apr - 14:08:47 10° ESE 14:10:51 12° E 14:12:58 10° E daylight
9 Apr - 15:50:21 10° SSW 15:56:17 80° WNW 16:02:27 10° NNE daylight
9 Apr - 17:41:00 10° WNW 17:43:36 13° NW 17:46:14 10° NNW daylight
10 Apr - 00:56:43 10° NNW 01:03:00 57° ENE 01:09:16 10° SE visible
10 Apr - 02:44:18 10° WNW 02:48:49 21° WSW 02:53:19 10° SSW night (unlit)
10 Apr - 14:15:09 10° SSE 14:19:17 20° ESE 14:23:31 10° ENE daylight
10 Apr - 15:59:16 10° SW 16:05:04 53° WNW 16:11:05 10° NNE daylight
10 Apr - 23:21:13 10° NNE 23:24:33 14° NE 23:27:50 10° ENE visible
11 Apr - 01:05:21 10° NNW 01:11:47 84° ENE 01:18:10 10° SSE visible
11 Apr - 02:54:43 10° WNW 02:57:16 13° WSW 02:59:49 10° SW night (unlit)
11 Apr - 14:22:40 10° SSE 14:27:47 31° ESE 14:33:03 10° NE daylight
11 Apr - 16:08:30 10° WSW 16:13:56 36° WNW 16:19:34 10° N daylight
11 Apr - 23:29:01 10° N 23:33:40 21° NE 23:38:18 10° E visible
12 Apr - 01:14:10 10° NNW 01:20:30 66° WSW 01:26:47 10° SSE visible
12 Apr - 14:30:42 10° S 14:36:21 48° ESE 14:42:12 10° NE daylight
12 Apr - 16:18:05 10° WSW 16:22:55 25° NW 16:27:52 10° N daylight
12 Apr - 23:37:12 10° N 23:42:42 29° NE 23:48:09 10° ESE visible
13 Apr - 01:23:08 10° NW 01:29:08 43° WSW 01:35:05 10° S visible
13 Apr - 14:39:05 10° SSW 14:45:00 75° ESE 14:51:08 10° NNE daylight
13 Apr - 16:28:09 10° W 16:31:58 17° NW 16:35:54 10° N daylight
13 Apr - 23:45:35 10° NNW 23:51:38 42° ENE 23:57:38 10° SE visible
